Weather History for Resia Pass, Italy

Change the Weather History Date:

Sunday, September 30, 2012

  Actual Average Record
Temperature  
Mean Temperature 54 °F -  
Max Temperature 57 °F 55 °F 73 °F (1997)
Min Temperature 50 °F 41 °F 30 °F (2002)
Degree Days  
Heating Degree Days 12    
Growing Degree Days 4 (Base 50)    
Moisture  
Dew Point 45 °F    
Average Humidity 79    
Maximum Humidity 82    
Minimum Humidity 63    
Precipitation  
Precipitation 0.00 in - - ()
Sea Level Pressure  
Sea Level Pressure 30.13 in    
Wind  
Wind Speed 3 mph ()    
Max Wind Speed 8 mph    
Max Gust Speed -    
Visibility 5.9 miles    
Events Rain    
Averages and records for this station are not official NWS values.
T = Trace of Precipitation, MM = Missing Value Source: Averaged Metar Reports

Daily Weather History Graph

Daily Weather History Graph

Search for Another Location

Airport:

Trip Planner

Search our weather history database for the weather conditions in past years. The results will help you decide how hot, cold, wet, or windy it might be!

Date:

Astronomy

Sep. 30, 2012 Rise Set
Actual Time 7:15 AM CEST 6:59 PM CEST
Civil Twilight 6:45 AM CEST 7:29 PM CEST
Nautical Twilight 6:10 AM CEST 8:04 PM CEST
Astronomical Twilight 5:34 AM CEST 8:40 PM CEST
Moon 6:48 PM CEST (9/30) 7:34 AM CEST (9/30)
Length of Visible Light 12h 43m
Length of Day
11h 43m
Full, 100% of the Moon is Illuminated
Sep 30
Full
Oct 8
Last Quarter
Oct 15
New
Oct 22
First Quarter
Oct 29
Full

Hourly Weather History & Observations

Time (CEST) Temp. Dew Point Humidity Pressure Visibility Wind Dir Wind Speed Gust Speed Precip Events Conditions
12:55 AM 50.0 °F 44.6 °F 82% 30.09 in 4.3 mi SSW 6.9 mph - N/A   Mostly Cloudy
3:55 AM 50.0 °F 44.6 °F 82% 30.12 in 5.0 mi ESE 2.3 mph - N/A   Overcast
5:55 AM 50.0 °F 44.6 °F 82% 30.12 in 5.0 mi Calm Calm - N/A   Overcast
6:55 AM 50.0 °F 44.6 °F 82% 30.12 in 6.2 mi Calm Calm - N/A   Overcast
7:55 AM 50.0 °F 44.6 °F 82% 30.12 in 6.2 mi Calm Calm - N/A   Overcast
8:55 AM 50.0 °F 44.6 °F 82% 30.12 in 6.2 mi Calm Calm - N/A   Mostly Cloudy
9:55 AM 50.0 °F 44.6 °F 82% 30.15 in 6.2 mi Calm Calm - N/A   Mostly Cloudy
10:55 AM 51.8 °F 44.6 °F 76% 30.15 in 6.2 mi Calm Calm - N/A   Mostly Cloudy
11:55 AM 51.8 °F 44.6 °F 76% 30.15 in 6.2 mi South 2.3 mph - N/A   Mostly Cloudy
12:55 PM 55.4 °F 44.6 °F 67% 30.15 in 6.2 mi WSW 5.8 mph - N/A   Mostly Cloudy
1:55 PM 57.2 °F 44.6 °F 63% 30.15 in 6.2 mi South 8.1 mph - N/A   Mostly Cloudy
2:55 PM 53.6 °F 46.4 °F 77% 30.15 in 6.2 mi SSE 5.8 mph - N/A   Mostly Cloudy
3:55 PM 53.6 °F 46.4 °F 77% 30.12 in 6.2 mi SE 6.9 mph - N/A   Mostly Cloudy
4:55 PM 53.6 °F 48.2 °F 82% 30.12 in 6.2 mi SSE 8.1 mph - N/A   Mostly Cloudy
5:55 PM 53.6 °F 48.2 °F 82% 30.12 in 3.7 mi SSW 4.6 mph - N/A Rain Light Rain
6:55 PM 53.6 °F 48.2 °F 82% 30.15 in 6.2 mi WSW 5.8 mph - N/A   Mostly Cloudy
7:55 PM 51.8 °F 46.4 °F 82% 30.15 in 6.2 mi Calm Calm - N/A   Mostly Cloudy
8:55 PM 50.0 °F 44.6 °F 82% 30.15 in 6.2 mi SE 2.3 mph - N/A   Mostly Cloudy
9:55 PM 50.0 °F 44.6 °F 82% 30.15 in 6.2 mi SSW 3.5 mph - N/A   Mostly Cloudy
10:55 PM 50.0 °F 44.6 °F 82% 30.15 in 6.2 mi SSE 2.3 mph - N/A   Mostly Cloudy
11:55 PM 50.0 °F 44.6 °F 82% 30.12 in 6.2 mi Calm Calm - N/A   Scattered Clouds